Regional Weather Roundup
Issued by NWS Kansas City/Pleasant Hill, MO

Home | Current Version | Previous Version | Text Only | Print | Product List | Glossary On
Versions: 1 2 3 4 5 6 7 8 9 10 11 12 13 14 15 16 17 18 19 20 21 22 23 24 25 26 27 28 29 30 31 32 33 34 35 36 37 38 39 40 41 42 43 44 45 46 47 48 49 50
000
ASUS43 KEAX 041210
RWREAX

WEATHER ROUNDUP FOR EASTERN KANSAS AND NORTHWEST MISSOURI
NATIONAL WEATHER SERVICE KANSAS CITY/PLEASANT HILL MO
700 AM CDT WED MAY 04 2016

KSZ040-057-103>105-MOZ028-029-037-043-041300-
...KANSAS CITY METROPOLITAN AREA...

CITY           SKY/WX    TMP DP  RH WIND       PRES   REMARKS
K.C. INTL      CLEAR     53  42  66 NW8       29.89R
6HR MIN TEMP:  51; 6HR MAX TEMP:  58;

K.C. DOWNTOWN  CLEAR     55  44  66 NW8       29.88R
6HR MIN TEMP:  55; 6HR MAX TEMP:  59;

LEES SUMMIT    CLEAR     55  43  63 NW12      29.88R
6HR MIN TEMP:  53; 6HR MAX TEMP:  57;

OLATHE - IXD   CLEAR     51  45  79 NW8       29.90R
6HR MIN TEMP:  51; 6HR MAX TEMP:  55;

OLATHE - OJC   CLEAR     53  43  68 NW7       29.89R
6HR MIN TEMP:  52; 6HR MAX TEMP:  56;

LAWRENCE       CLEAR     49  45  86 NW7       29.91R

$$

MOZ001>008-011>017-020>025-030>033-038>040-044>046-053-054-041300-
...NORTHERN AND CENTRAL MISSOURI...

CITY           SKY/WX    TMP DP  RH WIND       PRES   REMARKS
ST. JOSEPH     CLEAR     53  39  59 N12       29.90R
6HR MIN TEMP:  52; 6HR MAX TEMP:  60;

MOSBY          SUNNY     54  41  62 NW8       29.87R
WARRENSBURG    CLEAR     55  43  62 W8        29.85R
WHITEMAN AFB   PTCLDY    55  45  70 NW10      29.83R
6HR MIN TEMP:  54; 6HR MAX TEMP:  57;

CLINTON        CLEAR     55  46  71 W12       29.85R
SEDALIA        CLEAR     56  45  66 NW12      29.83R
6HR MIN TEMP:  54; 6HR MAX TEMP:  57;

WARSAW         NOT AVBL
CHILLICOTHE      N/A     55  39  54 VRB6      29.85R
6HR MIN TEMP:  53; 6HR MAX TEMP:  60;

KIRKSVILLE     CLEAR     53  40  61 N10       29.81R
6HR MIN TEMP:  52; 6HR MAX TEMP:  59; 6HR PCP: TRACE;


$$

MOZ041-047>049-056>058-063>065-088>090-097-041300-
...EASTERN AND SOUTHERN MISSOURI...

CITY           SKY/WX    TMP DP  RH WIND       PRES   REMARKS
ST. LOUIS INTL CLOUDY    57  46  66 W13       29.72R
6HR MIN TEMP:  54; 6HR MAX TEMP:  59; 6HR PCP: TRACE;

SPIRIT OF STL  PTSUNNY   56  47  71 W9        29.72R
COLUMBIA       PTCLDY    56  45  66 NW10      29.78R
JEFFERSON CITY MOCLDY    57  46  66 W9        29.78R
ROLLA          CLOUDY    49  44  83 W7        29.78R
OSAGE BEACH    PTCLDY    55  39  54 W9        29.82R
SPRINGFIELD    CLEAR     54  43  66 W12       29.87S
BRANSON        CLEAR     54  45  71 SW7       29.91S
JOPLIN         CLEAR     52  46  80 SW10      29.92S
WEST PLAINS    CLEAR     48  41  76 W6        29.86F

$$

IAZ060-094-KSZ022-034>040-054-083-096-NEZ052-066-093-041300-
...KANSAS...SOUTHEAST NEBRASKA AND IOWA...

CITY           SKY/WX    TMP DP  RH WIND       PRES   REMARKS
TOPEKA         CLEAR     51  44  77 W6        29.93R
6HR MIN TEMP:  49; 6HR MAX TEMP:  55;

MANHATTAN      CLEAR     49  42  77 CALM      29.98R
EMPORIA        CLEAR     52  44  74 NW7       29.95R
CHANUTE        CLEAR     54  45  71 W10       29.92R
WICHITA        CLEAR     56  45  66 W14       29.98S
OMAHA          CLEAR     48  37  65 N10       29.97R
LINCOLN        CLEAR     50  36  58 NW10      30.01R
FALLS CITY     CLEAR     50  40  68 NW10      29.93R
LAMONI         CLEAR     49  36  61 N14       29.87R
DES MOINES     CLEAR     50  36  58 N13       29.90R

$$




USA.gov is the U.S. government's official web portal to all federal, state and local government web resources and services.